Weather in Gulyashor

Russia / Komi Republic     59°26′07″N   49°31′01″E
temp.,
°C
wind,
m/s
gust,
m/s
humid.,
%
clouds,
%
prec.,
mm/h
press.,
hPa
HPBL,
m
29 july, thu
thu2900:00+10sw36755 0.0 1010102
03:00+9sw38775 0.0 1009142
06:00+14wsw386753 0.0 1007227
09:00+21wsw24493 0.0 1006616
12:00+24wsw363869 0.0 10052054
15:00+24wsw3549100 0.0 10041555
18:00+15ese0197100 12.3 100441
21:00+14se1298100 19.6 100340
30 july, fri
fri3000:00+15ssw31099100 4.8 1001522
03:00+15sw3899100 10.2 1000350
06:00+15wsw41097100 1.8 999644
09:00+18w4887100 2.0 1000809
12:00+21wnw596654 0.4 10001372
15:00+22wnw58675 0.9 10011252
18:00+22n117076 0.2 100279
21:00+17ssw23845 0.2 100246
31 july, sat
sat3100:00+15ssw23875 0.0 100356
03:00+15ssw2695100 0.5 1002124
06:00+15s2599100 3.5 1002163
09:00+19ssw478987 4.8 1001650
12:00+20ssw5992100 1.7 1000864
15:00+21sw49915 4.4 999808
18:00+18wsw410930 2.2 1000736
21:00+15w312967 3.7 1001476
1 august, sun
sun100:00+13wsw312970 0.0 1002399
03:00+12wsw3109810 0.0 1003300
06:00+14w3109615 0.0 1005361
09:00+19wsw46655 0.0 1006928
12:00+22w4651100 0.1 10061860
15:00+20w3764100 0.1 1008932
18:00+21wsw256714 0.0 1008257
21:00+18ssw2375100 0.0 100970
2 august, mon
mon200:00+17ssw257697 0.0 1009110
03:00+14ssw3789100 0.0 1009124
06:00+16sw41182100 0.1 1009476
09:00+16se2699100 1.9 1008252
12:00+22ssw4565100 0.0 10071054
15:00+24wsw476341 0.1 10071407
18:00+22w387221 0.1 1007529
21:00+16w1194100 0.1 100711